Regional Weather Roundup
Issued by NWS

Home | Current Version | Previous Version | Text Only | Print | Product List | Glossary On
Versions: 1 2 3 4 5 6 7 8 9 10 11 12 13 14 15 16 17 18 19 20 21 22 23 24 25 26 27 28 29 30 31 32 33 34 35 36 37 38 39 40 41 42 43 44 45 46 47 48 49 50
000
ASUS43 KMKX 261011
RWRWI

WISCONSIN REGIONAL WEATHER ROUNDUP
NATIONAL WEATHER SERVICE MILWAUKEE/SULLIVAN WI
400 AM CST FRI DEC 26 2014

NOTE: "FAIR" INDICATES FEW OR NO CLOUDS BELOW 12,000 FEET WITH NO
SIGNIFICANT WEATHER AND/OR OBSTRUCTIONS TO VISIBILITY.

WIZ001-002-006>008-014>016-023>028-261100-
NORTHWEST WISCONSIN

CITY           SKY/WX    TMP DP  RH WIND       PRES   REMARKS
SUPERIOR ARPT  CLOUDY    32  26  78 NE6       29.96R WCI  26
ASHLAND        CLOUDY    30  30 100 CALM      29.94R
HAYWARD        CLOUDY    30  28  92 NE3       29.91R FOG
SIREN          CLOUDY    31  31  98 NE5       29.93R WCI  26
CUMBERLAND     CLOUDY    30  28  93 N6        29.88S FOG     WCI  24
RICE LAKE      CLOUDY    31  30  95 N7        29.90R FOG     WCI  24
CHETEK         CLOUDY    32  30  93 CALM      29.89S
LADYSMITH      CLOUDY    32  31  95 NE5       29.90S WCI  27
EAU CLAIRE     MOCLDY    30  27  88 NE6       29.87S WCI  24
MENOMONIE      CLOUDY    30  30  97 N5        29.87F FOG     WCI  26
NEW RICHMOND   CLOUDY    31  31 100 N8        29.89S FOG     WCI  24
OSCEOLA        CLOUDY    32  32 100 N5        29.94R FOG     WCI  27
$$

WIZ003>005-009-010-017-018-261100-
NORTH CENTRAL WISCONSIN

CITY           SKY/WX    TMP DP  RH WIND       PRES   REMARKS
MANITOWISH WTR CLOUDY    26  26 100 CALM      29.89R
ARBOR VITAE    CLOUDY    32  31  95 CALM      29.89R FOG
WOODRUFF       CLOUDY    32  31  95 CALM      29.89R FOG
RHINELANDER    CLOUDY    29  27  92 E3        29.88F
EAGLE RIVER    CLOUDY    29  29 100 CALM      29.88F FOG
LAND O LAKES   CLOUDY    27  27  99 CALM      29.90S FOG
PHILLIPS       CLOUDY    29  28  97 CALM      29.88R
TOMAHAWK       CLOUDY    28  27  96 CALM      29.90R FOG
MEDFORD        CLOUDY    26  26  97 NE3       29.86F FOG
MERRILL        CLOUDY    28  28 100 NE3       29.88F FOG
$$

WIZ029-030-035-036-043>047-261100-
CENTRAL WISCONSIN

CITY           SKY/WX    TMP DP  RH WIND       PRES   REMARKS
WAUSAU         CLOUDY    29  27  92 SE3       29.88S
MOSINEE        CLOUDY    30  30 100 E5        29.89S FOG     WCI  25
MARSHFIELD     CLEAR     27  25  92 NE6       29.87F FOG     WCI  20
STEVENS POINT  PTCLDY    24  24  99 NE3       29.89S FOG
WAUPACA        PTCLDY    28  26  95 N3        29.91S FOG
WAUTOMA        MOCLDY    28  28 100 CALM      29.90S
WISC RAPIDS    PTCLDY    25  22  88 CALM      29.90S FOG
CAMP DOUGLAS   CLOUDY    28  28 100 CALM      29.87S
$$

WIZ011>013-019>022-031-037>040-048>050-261100-
NORTHEAST WISCONSIN

CITY           SKY/WX    TMP DP  RH WIND       PRES   REMARKS
ANTIGO         CLOUDY    28  28 100 S3        29.88S FOG
SHAWANO        FOG       28  26  95 CALM      29.93S VSB 1/4
OCONTO         PTCLDY    26  26 100 CALM      29.93F
STURGEON BAY   PTCLDY    34  30  86 S6        29.95F WCI  29
GREEN BAY      PTCLDY    30  29  96 CALM      29.93S FOG
MANITOWOC      PTCLDY    29  28  96 CALM      29.94F
APPLETON       PTCLDY    30  30 100 S6        29.91S FOG     WCI  24
CLINTONVILLE   CLOUDY    27  27 100 CALM      29.91S FOG
OSHKOSH        PTCLDY    35  32  88 S12       29.91S WCI  27
$$

WIZ032>034-041-042-053>061-261100-
SOUTHWEST WISCONSIN

CITY           SKY/WX    TMP DP  RH WIND       PRES   REMARKS
LA CROSSE      CLEAR     28  25  88 CALM      29.87R
SPARTA         PTCLDY    25  24  99 CALM      29.88R
VIROQUA        CLEAR     34  34  99 SE5       29.85R WCI  30
BOSCOBEL       FAIR      31  28  89 E3        29.88S
PRAIRIE DU CHI PTCLDY    37  30  77 E5        29.86S WCI  33
PLATTEVILLE    MOCLDY    38  34  85 S12       29.88S WCI  30
$$

WIZ056-057-062-063-064-067-068-261100-
SOUTH CENTRAL WISCONSIN

CITY           SKY/WX    TMP DP  RH WIND       PRES   REMARKS
REEDSBURG      MOCLDY    37  32  84 S3        29.88S
BARABOO/DELLS  MOCLDY    37  32  81 S7        29.87F WCI  31
LONE ROCK      PTCLDY    38  30  73 NE3       29.89S
MINERAL POINT  PTCLDY    36  34  93 SE5       29.88R WCI  32
MADISON        MOCLDY    37  33  85 S6        29.90S WCI  32
MIDDLETON      MOCLDY    38  34  83 S6        29.90S WCI  34
WATERTOWN      CLOUDY    36  35  95 CALM      29.91S
MONROE         CLOUDY    37  36  93 S14       29.89S WCI  29
JANESVILLE     CLOUDY    39  34  81 S6        29.92S WCI  35
$$

WIZ051-052-058>065-066-070>072-261100-
SOUTHEAST WISCONSIN

CITY           SKY/WX    TMP DP  RH WIND       PRES   REMARKS
MILWAUKEE      CLOUDY    39  33  79 SW12      29.94F WCI  32
WAUKESHA       MOCLDY    36  32  87 S7        29.94S WCI  30
MILWAUKEE/TIMM MOCLDY    37  32  81 S5        29.94F WCI  34
RACINE         CLOUDY    39  33  79 SW9       29.96F WCI  33
BURLINGTON     MOCLDY    37  33  87 S15       29.94S WCI  27
KENOSHA        MOCLDY    39  34  82 SW10      29.95S WCI  32
FOND DU LAC    PTCLDY    37  32  82 S12       29.91S WCI  29
SHEBOYGAN      PTCLDY    35  32  88 S6        29.93F WCI  30
WEST BEND      MOCLDY    36  32  87 S3        29.92F
JUNEAU         MOCLDY    35  32  91 SE6       29.92F WCI  30
$$

LSZ147-162-261100-
LAKE SUPERIOR

STATION/POSITION TIME  TEMP    WIND        PRES    WAVE
                       AIR SEA DIR/SP/G            HT/PER
                 (UTC) (F)     (DEG/KT/KT) (MB)    (FT/S)
DEVILS ISLAND    1000   33      10/ 16/ 17 1014.8R
PORT WING        0900   34      20/ 11/ 12 1013.9R
SAXON HARBOR     0900   32        CALM     1013.5S
$$

LMZ867-665-643>646-261100-
LAKE MICHIGAN

STATION/POSITION TIME  TEMP    WIND        PRES    WAVE
                       AIR SEA DIR/SP/G            HT/PER
                 (UTC) (F)     (DEG/KT/KT) (MB)    (FT/S)
CHAMBERS ISLAND  0900   31      CALM  /  2 1014.2R
NORTHPORT PIER   1003   32      CALM  /  2 1014.2S
SISTER BAY       0913          180/  7/  8   N/A
ALGOMA LAKESHORE 0915             CALM       N/A
KEWAUNEE LAKESHO 0900   32      CALM  /  2 1013.2R
SHEBOYGAN LAKESH 1000   40 38  190/ 14/ 15 1014.4F
PORT WASHINGTON  0940   38     180/  2/  4 1014.9F
MILWAUKEE LAKESH 0900   40     180/  6/  8   N/A
KENOSHA   LAKESH 1000   41     210/ 11/ 16 1014.6S
$$

TC  - TEMPERATURE IN CELSIUS
VSB - VISIBILITY IN STATUTE MILES
WCI - WIND CHILL INDEX
HX  - HEAT INDEX




USA.gov is the U.S. government's official web portal to all federal, state and local government web resources and services.